Regional Weather Roundup
Issued by NWS Midland/Odessa, TX

Skip options and go directly to product.
Home | Oldest Version | Previous Version | Current Version | All | Text Only | Save Text | Print | Product List | Glossary On

Skip product version selection by date and time.   
844
ASUS44 KMAF 251101
RWRMAF
MIDLAND AREA WEATHER ROUNDUP
NATIONAL WEATHER SERVICE MIDLAND TX
600 AM CDT SAT APR 25 2015

...IN SOUTHWEST TEXAS AND SOUTHEAST NEW MEXICO...

CITY           SKY/WX    TMP DP  RH WIND       PRES   REMARKS
ALPINE         CLEAR     41  32  70 CALM      30.04S
ANDREWS        FAIR      58  29  34 W14       29.87R
ARTESIA        CLEAR     50  30  46 W10       29.91R
BIG SPRING     CLEAR     54  29  39 SE8       29.86R
CARLSBAD       CLEAR     54  30  40 W8        29.89R
DRYDEN           N/A     58  41  53 NW10      29.86S
FORT STOCKTON  CLEAR     54  31  41 SW12      29.91S
GUAD PASS      NOT AVBL
HOBBS          CLEAR     50  30  46 W9        29.90R
MARFA          CLEAR     37  32  81 NE3       30.02S
MIDLAND AIRPK  CLEAR     62  31  31 W14G20    29.86R
MIDLAND INTL   CLEAR     61  32  33 W14       29.85S
ODESSA         CLEAR     58  30  34 W13       29.87S
PECOS          CLEAR     50  29  44 W3        29.90R
PRESIDIO       FAIR      54  29  39 N9        29.94R
SEMINOLE       CLEAR     48  32  53 W12       29.88S
SNYDER         CLEAR     51  38  62 SW8       29.81R
WINK           CLEAR     55  27  34 W10       29.86S
$$
...OTHER STATIONS IN TEXAS...

CITY           SKY/WX    TMP DP  RH WIND       PRES   REMARKS
ABILENE        CLEAR     59  37  44 SW3       29.78R
AMARILLO       CLEAR     53  29  39 W14       29.76R
AUSTIN         TSTM      72  71  97 SE5       29.78R
BROWNSVILLE    CLOUDY    79  76  90 SE12      29.70F FOG
CORPUS CHRISTI MOCLDY    75  71  87 S10       29.69R
DALLAS FTW     PTCLDY    57  56  96 SW9       29.68S
DEL RIO        PTCLDY    71  70  96 CALM      29.80R FOG
EL PASO        CLEAR     57  30  35 SW6       29.94S
HOUSTON INT    CLOUDY    76  73  91 NW7       29.70R
LUBBOCK        CLEAR     51  34  52 W14       29.80S
SAN ANGELO     CLEAR     51  42  71 W9        29.83S
SAN ANTONIO    TSTM      66  63  90 CALM      29.78F
WACO           CLOUDY    64  64 100 CALM      29.74R FOG
WICHITA FALLS  NOT AVBL
$$
...OTHER LOCATIONS IN NEW MEXICO...

CITY           SKY/WX    TMP DP  RH WIND       PRES   REMARKS
ALAMAGORDO     CLEAR     48  28  46 SE6       29.95R
ALBUQUERQUE    PTCLDY    48  33  56 S7        29.97S
CANNON AFB     NOT AVBL
CLOVIS         CLEAR     48  30  49 W14       29.84S
HOLLOMAN AFB   NOT AVBL
ROSWELL        CLEAR     51  32  48 NW6       29.89R
RUIDOSO        CLEAR     43  27  52 NW7       30.02R WCI  39
SANTA FE       CLEAR     39  30  70 W5        29.95S WCI  36
TRUTH OR CONSE CLEAR     48  31  51 NW8       29.95S
TUCUMCARI      CLEAR     55  32  41 W18       29.79S
$$

USA.gov is the U.S. government's official web portal to all federal, state and local government web resources and services.